Clarksburg, WV

9:57 AM EDT on September 18, 2019 (GMT -0400)
Benedum

Weather History for KCKB - May, 2019

Change the Weather History Date:

Tuesday, May 28, 2019

  Actual Average Record
Temperature  
Mean Temperature 77 °F -  
Max Temperature 87 °F 75 °F 92 °F (1939)
Min Temperature 67 °F 50 °F 36 °F (1994)
Cooling Degree Days 12    
Month to date cooling degree days 133  
Year to date cooling degree days 158  
Growing Degree Days 26 (Base 50)    
Moisture  
Dew Point 64 °F    
Average Humidity 65    
Maximum Humidity 81    
Minimum Humidity 48    
Precipitation  
Precipitation 0.23 in - - ()
Month to date precipitation 3.62  
Year to date precipitation 17.75  
Sea Level Pressure  
Sea Level Pressure 29.81 in    
Wind  
Wind Speed 10 mph (SW)    
Max Wind Speed 21 mph    
Max Gust Speed 29 mph    
Visibility 9 miles    
Events Rain , Thunderstorm    
Averages and records for this station are not official NWS values.
T = Trace of Precipitation, MM = Missing Value Source: NWS Daily Summary

Daily Weather History Graph

Daily Weather History Graph

Search for Another Location

Airport or City:

Astronomy

May. 28, 2019 Rise Set
Actual Time 5:58 AM EDT 8:38 PM EDT
Civil Twilight 5:26 AM EDT 9:09 PM EDT
Nautical Twilight 4:47 AM EDT 9:49 PM EDT
Astronomical Twilight 4:03 AM EDT 10:33 PM EDT
Moon 3:06 AM EDT (5/28) 2:49 PM EDT (5/28)
Length of Visible Light 15h 43m
Length of Day
14h 40m
Waning Crescent, 32% of the Moon is Illuminated
May 28
Waning Crescent
Jun 3
New
Jun 10
First Quarter
Jun 17
Full
Jun 25
Last Quarter

Hourly Weather History & Observations

Time (EDT) Temp. Heat Index Dew Point Humidity Pressure Visibility Wind Dir Wind Speed Gust Speed Precip Events Conditions
12:53 AM 66.9 °F - 61.0 °F 81% 29.86 in 10.0 mi SSE 3.5 mph - N/A   Scattered Clouds
1:53 AM 69.1 °F - 61.0 °F 75% 29.84 in 10.0 mi Calm Calm - 0.00 in   Mostly Cloudy
2:39 AM 69.1 °F - 62.1 °F 78% 29.88 in 10.0 mi Calm Calm - 0.00 in Rain , Thunderstorm Light Rain
2:53 AM 68.0 °F - 62.1 °F 81% 29.86 in 10.0 mi NNW 16.1 mph - 0.00 in Thunderstorm Mostly Cloudy
3:20 AM 68.0 °F - 62.1 °F 81% 29.90 in 6.0 mi SW 5.8 mph - 0.02 in Rain Rain
3:24 AM 68.0 °F - 63.0 °F 84% 29.89 in 1.8 mi Variable 3.5 mph - 0.11 in Rain Rain
3:34 AM 66.9 °F - 63.0 °F 87% 29.90 in 4.0 mi West 3.5 mph - 0.12 in Rain Light Rain
3:53 AM 66.9 °F - 63.0 °F 87% 29.84 in 3.0 mi SE 4.6 mph - 0.19 in Rain Rain
4:53 AM 66.9 °F - 63.0 °F 87% 29.81 in 10.0 mi SSE 3.5 mph - 0.03 in   Scattered Clouds
5:35 AM 68.0 °F - 63.0 °F 84% 29.84 in 10.0 mi East 3.5 mph - 0.00 in Rain , Thunderstorm Light Rain
5:50 AM 68.0 °F - 62.6 °F 83% 29.84 in 8.0 mi East 4.6 mph - 0.01 in Rain , Thunderstorm Light Thunderstorms and Rain
5:53 AM 68.0 °F - 63.0 °F 84% 29.80 in 10.0 mi SE 5.8 mph - 0.01 in Rain , Thunderstorm Light Thunderstorms and Rain
6:05 AM 68.0 °F - 64.0 °F 87% 29.85 in 10.0 mi Calm Calm - 0.00 in Thunderstorm Overcast
6:24 AM 68.0 °F - 64.0 °F 87% 29.86 in 9.0 mi East 6.9 mph - 0.00 in   Overcast
6:53 AM 69.1 °F - 64.0 °F 84% 29.82 in 9.0 mi Calm Calm - 0.00 in   Overcast
7:53 AM 71.1 °F - 64.9 °F 81% 29.83 in 10.0 mi South 4.6 mph - N/A   Scattered Clouds
8:53 AM 73.9 °F - 66.9 °F 79% 29.82 in 10.0 mi SW 10.4 mph - N/A   Mostly Cloudy
9:53 AM 78.1 °F - 66.9 °F 68% 29.81 in 10.0 mi WSW 11.5 mph - N/A   Partly Cloudy
10:53 AM 82.0 °F 84.5 °F 66.9 °F 60% 29.81 in 10.0 mi West 12.7 mph 26.5 mph N/A   Scattered Clouds
11:53 AM 84.0 °F 86.5 °F 66.9 °F 56% 29.79 in 10.0 mi West 12.7 mph 25.3 mph N/A   Mostly Cloudy
12:53 PM 84.0 °F 85.8 °F 64.9 °F 53% 29.78 in 10.0 mi WSW 11.5 mph 25.3 mph N/A   Mostly Cloudy
1:53 PM 84.9 °F 85.9 °F 63.0 °F 48% 29.78 in 10.0 mi WSW 17.3 mph 28.8 mph N/A   Scattered Clouds
2:53 PM 86.0 °F 87.6 °F 64.9 °F 49% 29.76 in 10.0 mi WSW 16.1 mph 24.2 mph N/A   Partly Cloudy
3:53 PM 84.9 °F 85.9 °F 63.0 °F 48% 29.75 in 10.0 mi WSW 19.6 mph 24.2 mph N/A   Scattered Clouds
4:53 PM 84.0 °F 86.3 °F 66.0 °F 55% 29.74 in 10.0 mi WSW 12.7 mph - N/A   Mostly Cloudy
5:53 PM 84.9 °F 86.1 °F 64.0 °F 49% 29.73 in 10.0 mi WSW 17.3 mph 25.3 mph N/A   Scattered Clouds
6:53 PM 84.9 °F 86.1 °F 64.0 °F 49% 29.74 in 10.0 mi WSW 15.0 mph - N/A   Scattered Clouds
7:53 PM 82.0 °F 83.4 °F 64.0 °F 54% 29.75 in 10.0 mi WSW 10.4 mph - N/A   Partly Cloudy
8:53 PM 79.0 °F - 64.0 °F 60% 29.77 in 10.0 mi WSW 6.9 mph - N/A   Clear
9:53 PM 75.9 °F - 63.0 °F 64% 29.76 in 10.0 mi SSW 8.1 mph - N/A   Clear
10:53 PM 75.0 °F - 64.0 °F 69% 29.76 in 10.0 mi SSW 8.1 mph - N/A   Clear
11:53 PM 73.0 °F - 64.0 °F 73% 29.75 in 10.0 mi SSW 4.6 mph - N/A   Clear